533  
ASUS44 KLIX 221813  
RWRLIX  
NEW ORLEANS REGIONAL WEATHER ROUNDUP  
NATIONAL WEATHER SERVICE NEW ORLEANS LA  
1200 PM CST WED NOV 22 2017  
 
NOTE: "FAIR" INDICATES FEW OR NO CLOUDS BELOW 12,000 FEET WITH NO  
SIGNIFICANT WEATHER AND/OR S TO VISIBILITY
.  
SKY/WX - SKY CONDITION AND SIGNIFICANT WEATHER.  
TMP - AIR TEMPERATURE. DP - DEWPOINT TEMPERATURE.  
RH - RELATIVE HUMIDITY. PRES - PRESSURE.  
HI - HEAT INDEX. WCI - WIND CHILL INDEX.  
 
* THESE STATIONS ARE NOT NWS OR FAA STATIONS AND ARE NOT UNDER  
NWS QUALITY CONTROL.  
 
LAZ038-040-048-061>063-065>067-069-221900-  
SOUTHEAST LOUISIANA  
 
CITY SKY/WX TMP DP RH WIND PRES REMARKS
 
N.O. INTL ARPT CLOUDY 63 44 50 N13 30.11F  
6HR MIN TEMP: 59; 6HR MAX TEMP: 64;  
 
N.O. LAKEFRONT PTSUNNY 65 45 48 N13 30.10F  
6HR MIN TEMP: 57; 6HR MAX TEMP: 66;  
 
N.O. DOWNTOWN* N/A 62 43 49 N9 30.11F  
6HR MIN TEMP: 58; 6HR MAX TEMP: 62;  
 
RESERVE* N/A 67 42 40 NE13 30.11F  
6HR MIN TEMP: 57; 6HR MAX TEMP: 67;  
 
SLIDELL SUNNY 67 41 38 N13G22 30.08F  
6HR MIN TEMP: 51; 6HR MAX TEMP: 67;  
 
BATON ROUGE SUNNY 64 43 46 N12 30.14F  
6HR MIN TEMP: 51; 6HR MAX TEMP: 65;  
 
BOOTHVILLE CLOUDY 63 48 58 NE10G20 30.09S  
6HR MIN TEMP: 62; 6HR MAX TEMP: 64;  
 
BELLE CHASSE CLOUDY 63 46 54 NE13 30.09F  
6HR MIN TEMP: 56; 6HR MAX TEMP: 63;  
 
BOGALUSA* NOT AVBL  
GALLIANO* CLOUDY 63 41 44 NE10G17 30.09F  
6HR MIN TEMP: 58; 6HR MAX TEMP: 64;  
 
NEW ROADS* N/A 62 46 55 NE13 30.17F  
6HR MIN TEMP: 49; 6HR MAX TEMP: 62;  
 
GONZALES* N/A 65 45 47 NE6 30.11F  
6HR MIN TEMP: 53; 6HR MAX TEMP: 65; 6HR PCP: 0.01;  
 
HAMMOND* SUNNY 64 43 45 N13G21 30.12F  
HOUMA* PTSUNNY 63 45 51 N17 30.10F  
PORT FOURCHON* NOT AVBL  
 

 
 
MSZ070-080>082-221900-  
SOUTHERN MISSISSIPPI  
 
CITY SKY/WX TMP DP RH WIND PRES REMARKS
 
MCCOMB SUNNY 61 42 49 N13G21 30.15F  
6HR MIN TEMP: 51; 6HR MAX TEMP: 62;  
 
GULFPORT SUNNY 66 41 40 N17G23 30.08F  
6HR MIN TEMP: 53; 6HR MAX TEMP: 66;  
 
BILOXI MOSUNNY 64 41 42 N13G22 30.07F  
6HR MIN TEMP: 52; 6HR MAX TEMP: 65;  
 
PASCAGOULA CLOUDY 66 37 34 NE15G24 30.07F  
6HR MIN TEMP: 47; 6HR MAX TEMP: 66;  
 

 
 
COASTAL OBSERVATIONS  
LAKE AND NEARSHORE STATIONS  
 
STATION/POSITION TIME TEMP WIND PRES WAVE
 
AIR SEA DIR/SP/G HT/PER  
(UTC) (F) (DEG/KT/KT) (MB) (FT/S)  
PASCAGOULA 1748 64 20/ 16/ 21 1017.7  
WAVELAND YACHT 1748 61 60 10/ 15/ 19 1018.6  
GRAND ISLE 1748 60 65 40/ 13/ 22 1018.8  
SOUTHWEST PASS 1748 62 62 20/ 22/ 27 1018.3  
NEW CANAL 1748 60 63 20/ 11/ 14 1019.2  
SHELL BEACH 1748 59 64 30/ 15/ 17 1018.9  
 
OFFSHORE STATIONS  
 
STATION/POSITION TIME TEMP WIND PRES WAVE
 
AIR SEA DIR/SP/G HT/PER  
(UTC) (F) (DEG/KT/KT) (MB) (FT/S)  
64 S DAUPHIN ISL 1750 67 78 30/ 17/ 21 1016.7 6/ 6  
 

 
 
 
 
CLICK HERE TO GO TO PREVIOUS BULLETINS.

The Nexlab LA Page
The Nexlab MS Page Main Text Page